�������l�o���
Date,Time,MP-1(��Sv/h),MP-2(��Sv/h),MP-3(��Sv/h),MP-4(��Sv/h),MP-5(��Sv/h),MP-6(��Sv/h),MP-7(��Sv/h),����,����(m/s),���J
2022/07/30,00:00,0.147,0.138,0.216,0.212,0.212,0.116,0.076,�k,2.0,��
2022/07/30,00:10,0.146,0.138,0.215,0.212,0.214,0.117,0.076,�k,1.0,��
2022/07/30,00:20,0.149,0.137,0.218,0.209,0.212,0.118,0.075,�k,1.3,��
2022/07/30,00:30,0.147,0.138,0.217,0.211,0.210,0.116,0.075,�k�k��,1.2,��
2022/07/30,00:40,0.146,0.138,0.215,0.212,0.212,0.115,0.076,�k,1.0,��
2022/07/30,00:50,0.147,0.137,0.216,0.210,0.214,0.116,0.074,�k�k��,1.3,��
2022/07/30,01:00,0.149,0.137,0.219,0.209,0.213,0.117,0.075,�k,1.4,��
2022/07/30,01:10,0.147,0.138,0.217,0.213,0.210,0.116,0.075,�k�k��,1.3,��
2022/07/30,01:20,0.146,0.138,0.215,0.212,0.213,0.115,0.076,�k,1.0,��
2022/07/30,01:30,0.148,0.137,0.219,0.209,0.214,0.117,0.075,�k,1.2,��
2022/07/30,01:40,0.148,0.138,0.217,0.211,0.212,0.118,0.075,�k�k��,1.7,��
2022/07/30,01:50,0.147,0.138,0.215,0.212,0.211,0.116,0.076,�k,1.7,��
2022/07/30,02:00,0.147,0.137,0.218,0.210,0.215,0.116,0.076,�k,1.6,��
2022/07/30,02:10,0.148,0.137,0.219,0.209,0.213,0.117,0.075,�k,2.2,��
2022/07/30,02:20,0.147,0.138,0.217,0.212,0.211,0.117,0.075,�k,2.1,��
2022/07/30,02:30,0.147,0.138,0.215,0.211,0.212,0.116,0.075,�k�k��,2.2,��
2022/07/30,02:40,0.147,0.137,0.219,0.210,0.213,0.116,0.075,�k,1.9,��
2022/07/30,02:50,0.149,0.138,0.217,0.211,0.213,0.116,0.075,�k�k��,1.4,��
2022/07/30,03:00,0.147,0.138,0.216,0.213,0.210,0.118,0.075,�k,1.7,��
2022/07/30,03:10,0.146,0.137,0.217,0.211,0.212,0.116,0.075,�k,1.3,��
2022/07/30,03:20,0.148,0.137,0.218,0.210,0.214,0.116,0.076,�k,2.1,��
2022/07/30,03:30,0.147,0.138,0.216,0.211,0.213,0.117,0.074,�k,2.2,��
2022/07/30,03:40,0.147,0.137,0.215,0.212,0.211,0.116,0.075,�k,2.2,��
2022/07/30,03:50,0.147,0.136,0.220,0.210,0.214,0.116,0.076,�k,1.7,��
2022/07/30,04:00,0.149,0.137,0.217,0.209,0.215,0.117,0.075,�k�k��,1.1,��
2022/07/30,04:10,0.147,0.137,0.216,0.212,0.211,0.117,0.075,�k�k��,2.5,��
2022/07/30,04:20,0.146,0.136,0.218,0.211,0.211,0.117,0.076,�k�k��,2.7,��
2022/07/30,04:30,0.148,0.137,0.218,0.209,0.214,0.116,0.076,�k�k��,1.7,��
2022/07/30,04:40,0.148,0.138,0.216,0.211,0.212,0.117,0.076,�k�k��,2.2,��
2022/07/30,04:50,0.145,0.137,0.217,0.211,0.210,0.118,0.076,�k��,2.3,��
2022/07/30,05:00,0.147,0.137,0.218,0.209,0.212,0.116,0.075,�k�k��,2.1,��
2022/07/30,05:10,0.149,0.138,0.216,0.211,0.215,0.116,0.075,�k��,1.6,��
2022/07/30,05:20,0.147,0.138,0.217,0.212,0.213,0.117,0.076,�k��,1.5,��
2022/07/30,05:30,0.146,0.136,0.218,0.211,0.211,0.117,0.075,�k��,1.7,�L
2022/07/30,05:40,0.149,0.138,0.218,0.210,0.215,0.116,0.075,���k��,1.2,�L
2022/07/30,05:50,0.148,0.139,0.216,0.212,0.211,0.117,0.076,�k��,1.1,�L
2022/07/30,06:00,0.147,0.138,0.218,0.212,0.210,0.118,0.076,�k��,0.8,�L
2022/07/30,06:10,0.147,0.139,0.218,0.210,0.214,0.118,0.076,�k��,0.9,�L
2022/07/30,06:20,0.149,0.138,0.216,0.212,0.214,0.118,0.075,���k��,0.8,�L
2022/07/30,06:30,0.147,0.138,0.218,0.212,0.211,0.117,0.078,���k��,1.4,�L
2022/07/30,06:40,0.147,0.138,0.219,0.210,0.212,0.118,0.077,���k��,1.1,�L
2022/07/30,06:50,0.150,0.139,0.216,0.210,0.215,0.117,0.076,��,0.9,��
2022/07/30,07:00,0.149,0.138,0.216,0.213,0.212,0.117,0.076,��,1.0,�L
2022/07/30,07:10,0.147,0.138,0.219,0.211,0.210,0.119,0.077,���k��,1.0,��
2022/07/30,07:20,0.147,0.139,0.217,0.209,0.213,0.118,0.076,���쓌,0.7,��
2022/07/30,07:30,0.149,0.138,0.216,0.211,0.213,0.117,0.076,���쓌,0.8,��
2022/07/30,07:40,0.149,0.139,0.218,0.213,0.212,0.117,0.075,-,CALM,��
2022/07/30,07:50,0.147,0.138,0.217,0.210,0.210,0.117,0.076,�k��,1.2,��
2022/07/30,08:00,0.146,0.138,0.216,0.210,0.211,0.116,0.075,-,CALM,��
2022/07/30,08:10,0.148,0.138,0.215,0.210,0.213,0.116,0.076,��,0.6,��
2022/07/30,08:20,0.149,0.137,0.217,0.212,0.212,0.116,0.076,��,0.6,��
2022/07/30,08:30,0.146,0.138,0.219,0.211,0.212,0.117,0.076,��,0.7,��
2022/07/30,08:40,0.146,0.139,0.216,0.209,0.211,0.116,0.076,���k��,0.7,��
2022/07/30,08:50,0.148,0.138,0.216,0.211,0.215,0.116,0.075,��,1.1,�L
2022/07/30,09:00,0.148,0.138,0.216,0.214,0.213,0.117,0.076,��,0.7,��
2022/07/30,09:10,0.147,0.137,0.218,0.211,0.213,0.118,0.077,��,0.8,��
2022/07/30,09:20,0.147,0.139,0.218,0.211,0.211,0.117,0.077,��,0.6,��
2022/07/30,09:30,0.147,0.139,0.217,0.209,0.212,0.117,0.076,��,1.0,�L
2022/07/30,09:40,0.147,0.137,0.216,0.213,0.214,0.117,0.076,��,0.7,��
2022/07/30,09:50,0.148,0.137,0.216,0.212,0.214,0.118,0.076,���쓌,1.1,��
2022/07/30,10:00,0.148,0.137,0.215,0.211,0.211,0.118,0.076,-,CALM,��
2022/07/30,10:10,0.147,0.136,0.215,0.210,0.211,0.117,0.075,-,CALM,��
2022/07/30,10:20,0.147,0.138,0.216,0.210,0.211,0.117,0.075,�k,0.6,��
2022/07/30,10:30,0.148,0.137,0.216,0.210,0.212,0.117,0.075,-,CALM,��
2022/07/30,10:40,0.147,0.137,0.216,0.210,0.211,0.117,0.075,���k��,0.9,�L
2022/07/30,10:50,0.146,0.138,0.215,0.208,0.210,0.117,0.076,��,0.6,�L
2022/07/30,11:00,0.147,0.138,0.216,0.210,0.212,0.116,0.075,���k��,1.4,�L
2022/07/30,11:10,0.147,0.138,0.217,0.210,0.211,0.117,0.076,���k��,1.4,��
2022/07/30,11:20,0.148,0.137,0.216,0.210,0.212,0.117,0.076,���쓌,1.8,��
2022/07/30,11:30,0.147,0.138,0.216,0.211,0.212,0.117,0.076,���쓌,1.1,��
2022/07/30,11:40,0.147,0.137,0.217,0.212,0.212,0.117,0.075,��,1.8,��
2022/07/30,11:50,0.146,0.138,0.216,0.211,0.212,0.117,0.075,���쓌,1.7,��
2022/07/30,12:00,0.146,0.138,0.216,0.211,0.213,0.117,0.076,�쓌,0.9,��
2022/07/30,12:10,0.148,0.137,0.219,0.211,0.211,0.116,0.075,�쓌,1.1,��
2022/07/30,12:20,0.146,0.136,0.217,0.210,0.213,0.116,0.076,���쓌,1.2,��
2022/07/30,12:30,0.147,0.137,0.217,0.212,0.213,0.117,0.076,���쓌,1.2,��
2022/07/30,12:40,0.147,0.137,0.217,0.211,0.212,0.117,0.075,���쓌,1.4,��
2022/07/30,12:50,0.147,0.138,0.218,0.212,0.212,0.117,0.076,��쓌,1.4,��
2022/07/30,13:00,0.148,0.138,0.218,0.212,0.213,0.117,0.076,��쓌,1.2,��
2022/07/30,13:10,0.148,0.138,0.217,0.211,0.212,0.118,0.076,�쓌,1.2,��
2022/07/30,13:20,0.148,0.138,0.217,0.211,0.212,0.116,0.075,��쓌,1.3,��
2022/07/30,13:30,0.148,0.139,0.217,0.210,0.214,0.118,0.076,��쓌,0.7,��
2022/07/30,13:40,0.147,0.138,0.219,0.211,0.213,0.117,0.076,��쓌,0.9,��
2022/07/30,13:50,0.148,0.139,0.218,0.212,0.213,0.117,0.076,��쓌,0.9,��
2022/07/30,14:00,0.149,0.138,0.218,0.212,0.213,0.118,0.076,��쓌,1.0,��
2022/07/30,14:10,0.148,0.138,0.218,0.212,0.214,0.118,0.075,�쓌,1.5,��
2022/07/30,14:20,0.148,0.138,0.218,0.211,0.213,0.117,0.076,�쓌,2.3,��
2022/07/30,14:30,0.148,0.138,0.218,0.211,0.213,0.117,0.076,�쓌,2.1,��
2022/07/30,14:40,0.148,0.139,0.220,0.211,0.215,0.118,0.076,�쓌,1.8,��
2022/07/30,14:50,0.149,0.139,0.218,0.211,0.214,0.117,0.076,�쓌,1.8,��
2022/07/30,15:00,0.149,0.138,0.219,0.212,0.213,0.118,0.076,�쓌,1.0,��
2022/07/30,15:10,0.149,0.138,0.219,0.213,0.213,0.118,0.076,�쓌,1.4,��
2022/07/30,15:20,0.148,0.138,0.217,0.212,0.213,0.117,0.076,�쓌,1.7,��
2022/07/30,15:30,0.148,0.138,0.219,0.213,0.214,0.118,0.076,��,1.3,��
2022/07/30,15:40,0.148,0.139,0.218,0.212,0.213,0.117,0.077,��쓌,1.5,��
2022/07/30,15:50,0.148,0.138,0.218,0.212,0.213,0.117,0.076,��쓌,2.3,��
2022/07/30,16:00,0.148,0.138,0.217,0.212,0.214,0.117,0.076,��쓌,2.2,��
2022/07/30,16:10,0.148,0.138,0.218,0.212,0.213,0.118,0.075,�쓌,3.0,��
2022/07/30,16:20,0.148,0.136,0.217,0.210,0.213,0.117,0.075,��,2.8,��
2022/07/30,16:30,0.148,0.137,0.217,0.211,0.212,0.117,0.075,��쓌,2.5,��
2022/07/30,16:40,0.147,0.137,0.217,0.211,0.213,0.117,0.075,��,2.9,��
2022/07/30,16:50,0.147,0.137,0.217,0.211,0.211,0.118,0.075,��쓌,3.3,��
2022/07/30,17:00,0.147,0.137,0.218,0.211,0.212,0.118,0.076,��쓌,2.7,��
2022/07/30,17:10,0.146,0.138,0.220,0.212,0.211,0.117,0.076,��쓌,3.3,��
2022/07/30,17:20,0.146,0.139,0.220,0.213,0.211,0.117,0.075,��쓌,3.2,��
2022/07/30,17:30,0.149,0.138,0.219,0.213,0.212,0.117,0.076,��쓌,3.7,��
2022/07/30,17:40,0.149,0.138,0.219,0.212,0.216,0.118,0.075,��쓌,3.1,��
2022/07/30,17:50,0.148,0.138,0.218,0.210,0.215,0.118,0.077,��쓌,3.1,��
2022/07/30,18:00,0.148,0.139,0.221,0.215,0.213,0.117,0.075,��쓌,3.1,��
2022/07/30,18:10,0.146,0.138,0.220,0.214,0.211,0.116,0.076,��쓌,3.4,��
2022/07/30,18:20,0.150,0.139,0.218,0.212,0.212,0.117,0.075,��쓌,2.8,��
2022/07/30,18:30,0.149,0.137,0.216,0.211,0.216,0.118,0.076,��,2.9,��
2022/07/30,18:40,0.149,0.139,0.220,0.214,0.215,0.118,0.076,��,3.3,��
2022/07/30,18:50,0.146,0.139,0.220,0.214,0.213,0.117,0.075,��쓌,2.2,��
2022/07/30,19:00,0.148,0.138,0.219,0.213,0.211,0.117,0.075,��쓌,1.7,��
2022/07/30,19:10,0.149,0.138,0.217,0.210,0.216,0.118,0.076,��쓌,2.5,��
2022/07/30,19:20,0.148,0.139,0.221,0.214,0.216,0.118,0.076,��쓌,2.4,��
2022/07/30,19:30,0.147,0.138,0.219,0.213,0.212,0.117,0.076,��쓌,2.2,��
2022/07/30,19:40,0.147,0.138,0.218,0.211,0.213,0.117,0.075,��쓌,2.2,��
2022/07/30,19:50,0.149,0.138,0.220,0.212,0.215,0.118,0.076,��쓌,2.0,��
2022/07/30,20:00,0.147,0.139,0.221,0.214,0.212,0.117,0.075,��쓌,1.2,��
2022/07/30,20:10,0.147,0.138,0.218,0.212,0.212,0.116,0.075,��쓌,1.7,��
2022/07/30,20:20,0.148,0.138,0.218,0.212,0.214,0.117,0.075,��쓌,2.1,��
2022/07/30,20:30,0.149,0.138,0.221,0.213,0.214,0.117,0.076,��쓌,1.7,��
2022/07/30,20:40,0.148,0.138,0.219,0.213,0.212,0.118,0.075,��쓌,1.5,��
2022/07/30,20:50,0.147,0.138,0.217,0.214,0.212,0.117,0.075,��쓌,1.6,��
2022/07/30,21:00,0.148,0.137,0.219,0.211,0.215,0.117,0.075,��쓌,2.0,��
2022/07/30,21:10,0.149,0.138,0.220,0.213,0.215,0.118,0.076,��쓌,1.6,��
2022/07/30,21:20,0.148,0.138,0.218,0.213,0.212,0.116,0.075,��쓌,1.5,��
2022/07/30,21:30,0.147,0.137,0.217,0.212,0.211,0.116,0.075,��,1.1,��
2022/07/30,21:40,0.147,0.138,0.220,0.212,0.216,0.117,0.076,��쓌,0.8,��
2022/07/30,21:50,0.149,0.139,0.219,0.214,0.213,0.117,0.075,-,CALM,��
2022/07/30,22:00,0.148,0.137,0.218,0.213,0.212,0.117,0.075,-,CALM,��
2022/07/30,22:10,0.146,0.137,0.219,0.211,0.213,0.117,0.076,��,0.6,��
2022/07/30,22:20,0.150,0.139,0.219,0.213,0.215,0.118,0.076,��,0.7,��
2022/07/30,22:30,0.149,0.138,0.218,0.214,0.214,0.118,0.077,��쐼,0.8,��
2022/07/30,22:40,0.148,0.137,0.217,0.212,0.213,0.116,0.075,-,CALM,��
2022/07/30,22:50,0.148,0.139,0.219,0.212,0.213,0.117,0.076,��,0.7,��
2022/07/30,23:00,0.150,0.138,0.220,0.214,0.215,0.118,0.076,��쐼,1.7,��
2022/07/30,23:10,0.149,0.139,0.218,0.214,0.213,0.119,0.077,��쐼,1.7,��
2022/07/30,23:20,0.149,0.139,0.220,0.214,0.213,0.117,0.076,��,2.5,��
2022/07/30,23:30,0.149,0.141,0.222,0.214,0.215,0.118,0.077,��,2.5,��
2022/07/30,23:40,0.151,0.139,0.219,0.215,0.215,0.118,0.076,��,2.9,��
2022/07/30,23:50,0.148,0.139,0.220,0.214,0.215,0.118,0.076,��,1.8,��
